EW7398 Weather Reports


Display with metric or nautical units.
time (UTC)temp
F
wind
direction
speed
MPH
gust
MPH
rain 1hr
in
rain 24hr
in
rain mn
in
humidity
%
barometer
mb
20260903164544 78 214 5.0 14.0 0.00 0.00 0.00 41 1009.5
20260903163025 76 178 8.0 17.0 0.00 0.00 0.00 42 1009.4
20260903161615 75 163 8.0 14.0 0.00 0.00 0.00 44 1009.4
20260903160037 74 144 7.0 15.0 0.00 0.00 0.00 45 1009.6
20260903154543 72 360 7.0 14.0 0.00 0.00 0.00 45 1009.6
20260903153018 71 148 10.0 17.0 0.00 0.00 0.00 46 1009.6
20260903151556 69 176 8.0 14.0 0.00 0.00 0.00 47 1009.7
20260903150014 68 360 6.0 12.0 0.00 0.00 0.00 48 1009.7
20260903144550 66 360 8.0 12.0 0.00 0.00 0.00 51 1009.8
20260903143035 64 360 3.0 6.0 0.00 0.00 0.00 56 1009.9
20260903141505 61 360 2.0 4.0 0.00 0.00 0.00 60 1009.8
20260903140045 59 360 2.0 5.0 0.00 0.00 0.00 63 1009.6
20260903134607 58 153 1.0 3.0 0.00 0.00 0.00 64 1009.4
20260903133047 58 96 2.0 4.0 0.00 0.00 0.00 63 1009.1
20260903131521 58 101 1.0 4.0 0.00 0.00 0.00 63 1009.0
20260903130104 58 107 1.0 6.0 0.00 0.00 0.00 62 1008.8
20260903124545 58 108 2.0 4.0 0.00 0.00 0.00 62 1008.7
20260903123055 58 136 2.0 5.0 0.00 0.00 0.00 62 1008.7
20260903121548 58 127 4.0 8.0 0.00 0.00 0.00 62 1008.6
20260903120116 58 133 3.0 5.0 0.00 0.00 0.00 63 1008.7
20260903114536 58 136 2.0 5.0 0.00 0.00 0.00 62 1008.6
20260903113021 58 133 3.0 5.0 0.00 0.00 0.00 62 1008.7
20260903111555 58 136 3.0 4.0 0.00 0.00 0.00 62 1008.7
20260903110020 59 134 3.0 5.0 0.00 0.00 0.00 61 1008.6
20260903104510 59 87 2.0 6.0 0.00 0.00 0.00 59 1008.6
20260903103047 59 134 2.0 4.0 0.00 0.00 0.00 58 1008.6
20260903101532 59 132 0.0 3.0 0.00 0.00 0.00 57 1008.7
20260903100106 60 131 0.0 1.0 0.00 0.00 0.00 56 1008.7
20260903094538 60 128 0.0 4.0 0.00 0.00 0.00 55 1008.7
20260903093018 60 117 3.0 6.0 0.00 0.00 0.00 57 1008.8
20260903091510 60 134 0.0 3.0 0.00 0.00 0.00 57 1008.8
20260903090051 60 136 1.0 7.0 0.00 0.00 0.00 58 1008.7
20260903084506 60 113 2.0 5.0 0.00 0.00 0.00 59 1008.6
20260903083047 60 130 2.0 5.0 0.00 0.00 0.00 58 1008.7
20260903081532 61 115 4.0 8.0 0.00 0.00 0.00 59 1009.1
20260903080117 61 121 1.0 4.0 0.00 0.00 0.00 57 1008.8
20260903074532 61 115 0.0 4.0 0.00 0.00 0.00 56 1009.0
20260903073014 62 119 3.0 6.0 0.00 0.00 0.00 57 1009.1
20260903071556 63 94 2.0 6.0 0.00 0.00 0.00 57 1009.0
20260903070046 64 123 1.0 3.0 0.00 0.00 0.00 56 1009.0
20260903064602 64 127 0.0 0.0 0.00 0.00 0.00 55 1008.9
20260903064508 64 128 0.0 0.0 0.00 0.00 0.00 55 1008.9
20260903063039 65 121 0.0 3.0 0.00 0.00 0.00 50 1009.0
20260903061535 66 123 2.0 4.0 0.00 0.00 0.00 51 1008.9
20260903060108 67 124 1.0 4.0 0.00 0.00 0.00 49 1008.9
20260903054542 68 123 0.0 0.0 0.00 0.00 0.00 47 1008.9
20260903053025 69 128 2.0 4.0 0.00 0.00 0.00 45 1008.9
20260903051505 69 150 2.0 7.0 0.00 0.00 0.00 41 1009.0
20260903050043 70 154 1.0 6.0 0.00 0.00 0.00 42 1009.1
20260903044506 69 148 2.0 9.0 0.00 0.00 0.00 41 1009.0
20260903043104 69 138 3.0 8.0 0.00 0.00 0.00 43 1008.9
20260903041536 70 125 3.0 7.0 0.00 0.00 0.00 44 1008.7
20260903040044 72 121 2.0 4.0 0.00 0.00 0.00 43 1008.8
20260903034556 73 128 2.0 5.0 0.00 0.00 0.00 40 1008.7
20260903033044 74 138 4.0 9.0 0.00 0.00 0.00 37 1008.5
20260903031523 74 142 4.0 8.0 0.00 0.00 0.00 37 1008.3
20260903030111 75 138 3.0 5.0 0.00 0.00 0.00 36 1008.1
20260903024544 76 155 4.0 7.0 0.00 0.00 0.00 34 1007.9
20260903023023 76 153 4.0 11.0 0.00 0.00 0.00 33 1007.6
20260903021532 77 142 6.0 12.0 0.00 0.00 0.00 33 1007.6
20260903020105 78 142 6.0 11.0 0.00 0.00 0.00 32 1007.5
20260903014526 79 202 5.0 11.0 0.00 0.00 0.00 31 1007.6
20260903013010 79 228 5.0 12.0 0.00 0.00 0.00 31 1007.5
20260903011559 80 259 9.0 17.0 0.00 0.00 0.00 30 1007.5
20260903010046 81 189 7.0 14.0 0.00 0.00 0.00 30 1007.5
20260903004514 81 189 9.0 21.0 0.00 0.00 0.00 30 1007.5
20260903003054 82 198 10.0 21.0 0.00 0.00 0.00 29 1007.5
20260903001542 82 248 8.0 26.0 0.00 0.00 0.00 29 1007.6
20260903000001 83 207 11.0 17.0 0.00 0.00 0.00 30 1007.5
20260902234548 83 205 7.0 17.0 0.00 0.00 0.00 30 1007.6
20260902233058 84 193 11.0 18.0 0.00 0.00 0.00 30 1007.5
20260902231525 84 206 9.0 20.0 0.00 0.00 0.00 31 1007.6
20260902230107 85 213 11.0 20.0 0.00 0.00 0.00 30 1007.7
20260902224525 86 208 9.0 21.0 0.00 0.00 0.00 31 1007.7
20260902223003 86 224 8.0 19.0 0.00 0.00 0.00 31 1007.9
20260902221543 86 271 8.0 23.0 0.00 0.00 0.00 32 1008.1
20260902220119 86 204 11.0 21.0 0.00 0.00 0.00 30 1008.0
20260902214549 86 200 14.0 26.0 0.00 0.00 0.00 30 1008.2
20260902213027 86 186 13.0 26.0 0.00 0.00 0.00 32 1008.1
20260902211514 86 181 8.0 19.0 0.00 0.00 0.00 33 1008.5
20260902210050 86 201 12.0 19.0 0.00 0.00 0.00 33 1008.6
20260902204503 87 202 10.0 17.0 0.00 0.00 0.00 32 1008.7
20260902203050 86 197 7.0 20.0 0.00 0.00 0.00 35 1008.7
20260902201531 86 207 8.0 23.0 0.00 0.00 0.00 35 1009.1
20260902200104 85 155 10.0 20.0 0.00 0.00 0.00 36 1009.1
20260902194530 85 200 10.0 15.0 0.00 0.00 0.00 36 1009.3
20260902193005 84 202 9.0 25.0 0.00 0.00 0.00 37 1009.5
20260902191543 82 191 9.0 25.0 0.00 0.00 0.00 40 1009.6
20260902190117 80 169 10.0 18.0 0.00 0.00 0.00 41 1009.8
20260902184542 79 215 6.0 21.0 0.00 0.00 0.00 42 1010.0
20260902183049 80 224 10.0 19.0 0.00 0.00 0.00 41 1010.2
20260902181509 80 178 10.0 20.0 0.00 0.00 0.00 42 1010.4
20260902180047 78 136 11.0 16.0 0.00 0.00 0.00 43 1010.5
20260902174559 76 198 3.0 15.0 0.00 0.00 0.00 51 1010.6
20260902173048 76 360 5.0 14.0 0.00 0.00 0.00 55 1010.7
20260902171518 75 360 8.0 13.0 0.00 0.00 0.00 55 1010.6
20260902170058 75 360 8.0 17.0 0.00 0.00 0.00 55 1010.6